Location: Complexul Astronomic Baia Mare
(47.6577°N, 23.5639°E)
Time: 06:52:55
(UTC+03:00)

ISS - Pass Details

Date: 13 May 2017
Orbit: 402 x 408 km, 51.6° (Epoch: 29 May)

Event Time Altitude Azimuth Distance (km) Brightness Sun altitude
Exits shadow 02:56:23 19° 108° (ESE) 1,027 -1.8 -20.7°
Drops below altitude 10° 02:57:54 10° 85° (E) 1,464 -0.7 -20.6°
Sets 03:00:13 0° 71° (ENE) 2,326 0.7 -20.4°
